Theta_e
285 286 286 287 287 287 285 285 285 284 285 285 287 287 286 285 284 283 282 281 281 280
282 282 283 283 283 283 284 283 282 282 281 282 282 283 284 282 280 280 280 279 278 278
279 280 280 280 280 280 281 281 281 280 280 280 280 279 280 280 278 277 277 277 277 276
278 278 278 278 278 278 279 280 279 279 279 278 278 278 278 277 277 276 276 276 275 275
277 277 276 276 277 277 277 278 278 278 277 277 277 277 276 275 275 275 274 274 274 274
277 276 276 276 276 276 276 276 276 277 276 276 275 276 276 275 275 274 274 274 274 274
276 277 277 277 276 276 276 275 275 275 275 275 275 275 275 276 275 275 276 276 276 275
276 277 277 277 277 277 277 277 277 276 275 275 275 275 274 275 274 274 274 275 276 277
276 277 277 277 276 276 276 276 277 276 276 276 277 278 277 276 275 275 274 273 274 274
276 276 276 276 276 276 276 276 276 276 276 276 277 277 276 275 274 273 273 273 274 273
275 274 275 275 275 276 276 276 276 276 276 276 276 276 275 273 272 271 272 272 273 273
275 274 274 274 274 275 275 275 275 276 276 275 275 276 275 273 272 271 270 271 272 273
274 274 273 274 274 275 275 275 275 275 275 277 276 277 275 274 273 271 271 271 271 271
273 273 273 273 274 274 273 273 273 273 274 274 275 277 277 276 273 272 272 271 270 271
Wind_Speed
9 5 5 6 5 6 6 6 8 9 10 12 11 12 9 10 10 10 10 12 11 9
8 8 7 8 8 7 8 7 9 11 12 13 14 11 9 11 14 10 12 11 13 11
9 9 8 8 11 10 9 9 11 13 13 15 16 14 13 12 15 13 10 10 14 12
9 10 9 9 10 11 11 11 11 14 13 15 15 17 14 12 18 17 14 13 13 15
10 9 10 11 12 12 13 13 13 13 16 15 16 15 17 14 16 15 14 13 12 13
11 11 11 12 13 13 13 14 14 14 16 18 16 14 11 17 15 15 14 11 12 12
11 11 11 12 14 14 13 14 15 15 16 16 14 12 13 14 15 14 12 13 11 12
11 11 12 13 12 15 15 14 13 14 14 13 13 9 12 12 13 14 12 13 13 14
11 11 12 13 11 15 15 12 13 13 14 13 10 19 19 14 13 12 12 10 9 9
10 12 12 12 14 15 13 12 13 13 11 13 13 18 18 17 11 10 10 9 8 8
9 9 10 11 12 11 10 10 10 10 11 11 10 16 17 15 10 10 9 9 8 7
7 8 9 10 10 9 10 10 9 9 10 10 10 13 11 9 8 8 8 6 7 7
6 7 9 9 8 8 9 9 8 9 8 10 9 12 10 7 4 5 4 5 5 6
6 6 6 7 7 7 8 8 7 7 7 7 8 8 10 9 5 4 3 3 3 4
Wind_Direction
18 33 49 51 64 60 56 42 38 44 40 50 50 53 74 79 71 65 73 68 66 65
33 42 51 53 62 62 63 61 56 62 57 58 57 55 58 76 71 64 71 68 66 68
43 45 51 56 64 64 60 66 69 69 67 65 63 55 47 80 73 69 64 67 64 65
48 50 52 59 60 62 64 65 70 75 74 73 70 67 63 57 78 78 69 64 66 63
58 59 62 63 63 63 67 64 68 74 78 74 77 78 76 76 66 66 72 69 73 69
65 66 67 68 68 64 65 66 67 70 76 70 69 70 72 77 83 75 72 62 66 76
62 65 68 73 74 74 69 72 67 65 65 73 78 75 73 73 77 76 70 77 65 70
64 65 69 69 75 79 72 70 75 77 76 79 78 76 85 79 77 76 71 62 61 63
71 71 71 76 79 76 72 66 68 70 72 76 79 82 82 83 85 83 81 86 86 84
77 82 83 85 75 72 79 80 75 70 79 81 84 92 89 83 84 86 80 82 83 74
76 81 85 84 78 83 80 73 77 84 86 88 83 81 82 86 89 89 81 73 69 72
89 88 86 84 82 89 91 86 85 90 94 94 88 86 89 91 88 87 79 70 54 37
85 89 92 95 99 100 96 93 88 82 72 75 87 80 77 78 89 87 83 63 46 29
97 107 112 105 88 90 88 89 83 76 64 56 43 79 78 61 60 55 46 27 14 359